This is the latest recevied weather packets stored in our database for station/object KC5TIL-3. If no packets are shown the sender has not sent any weather packets the latest 10 day(s).
| Time | Temp. | Humidity | Pressure | Rain* | Wind** | Luminosity | Snow |
|---|---|---|---|---|---|---|---|
| 1787688933 | 36.67° C | 10% | 1011.8 hPa | 0 mm | 3.13 m/s, 129° | - | - |
| 1787688631 | 36.67° C | 10% | 1011.8 hPa | 0 mm | 2.68 m/s, 152° | - | - |
| 1787688333 | 36.11° C | 11% | 1011.8 hPa | 0 mm | 2.24 m/s, 113° | - | - |
| 1787688035 | 36.11° C | 11% | 1011.8 hPa | 0 mm | 1.79 m/s, 195° | - | - |
| 1787687729 | 36.11° C | 13% | 1011.8 hPa | 0 mm | 2.24 m/s, 157° | - | - |
| 1787687426 | 35.56° C | 13% | 1011.8 hPa | 0 mm | 2.68 m/s, 150° | - | - |
| 1787687128 | 35.56° C | 13% | 1011.8 hPa | 0 mm | 2.68 m/s, 186° | - | - |
| 1787686826 | 35.56° C | 13% | 1011.8 hPa | 0 mm | 2.24 m/s, 106° | - | - |
| 1787686528 | 35.56° C | 13% | 1011.8 hPa | 0 mm | 2.24 m/s, 221° | - | - |
| 1787686230 | 35.56° C | 13% | 1011.8 hPa | 0 mm | 2.24 m/s, 225° | - | - |
| 1787685928 | 35.56° C | 13% | 1011.8 hPa | 0 mm | 2.68 m/s, 233° | - | - |
| 1787685630 | 35.56° C | 13% | 1011.8 hPa | 0 mm | 3.13 m/s, 207° | - | - |
| 1787685328 | 36.11° C | 13% | 1011.8 hPa | 0 mm | 2.24 m/s, 145° | - | - |
| 1787685026 | 36.11° C | 13% | 1011.8 hPa | 0 mm | 2.68 m/s, 160° | - | - |
| 1787684728 | 36.11° C | 13% | 1011.8 hPa | 0 mm | 2.68 m/s, 201° | - | - |
| 1787684430 | 36.11° C | 13% | 1011.8 hPa | 0 mm | 2.68 m/s, 225° | - | - |
| 1787684129 | 36.11° C | 13% | 1011.8 hPa | 0 mm | 3.13 m/s, 203° | - | - |
| 1787683830 | 36.67° C | 13% | 1011.8 hPa | 0 mm | 1.79 m/s, 120° | - | - |
| 1787683532 | 36.11° C | 13% | 1012.8 hPa | 0 mm | 3.13 m/s, 206° | - | - |
| 1787683216 | 36.11° C | 13% | 1012.8 hPa | 0 mm | 2.24 m/s, 192° | - | - |
| 1787682918 | 35.56° C | 13% | 1012.8 hPa | 0 mm | 2.24 m/s, 200° | - | - |
| 1787682620 | 35.56° C | 13% | 1012.8 hPa | 0 mm | 1.79 m/s, 218° | - | - |
| 1787682319 | 35° C | 14% | 1012.8 hPa | 0 mm | 2.24 m/s, 234° | - | - |
| 1787682020 | 35° C | 16% | 1012.8 hPa | 0 mm | 2.24 m/s, 158° | - | - |
| 1787681722 | 35° C | 16% | 1012.8 hPa | 0 mm | 2.68 m/s, 174° | - | - |
* Rain latest hour (hover to see other rain measurements)
** Current wind speed in m/s (hover to see current wind gust speed)